Location: Caracas
(10.5033°N, 66.8422°W)
Time: 01:41:41
(UTC-04:00)

Vanguard 2 Rocket - Visible Passes

Search period start: 22 November 2017 00:00
Search period end: 02 December 2017 00:00
Orbit: 556 x 3326 km, 32.9° (Epoch: 21 November)

Date Brightness Start Highest point End Pass type
(mag) Time Alt. Az. Time Alt. Az. Time Alt. Az.
22 Nov10.901:26:47NE01:26:47NE00:46:47WSWvisible
22 Nov 9.7 03:32:36 24° N 03:32:36 24° N 03:37:34 10° NE visible
22 Nov 9.3 05:39:40 10° NW 05:46:40 18° N 05:51:42 10° NE visible
22 Nov 10.5 19:19:56 10° S 19:29:42 18° SE 19:38:53 13° ESE visible
22 Nov 9.8 21:30:28 10° SW 21:44:41 51° SSE 21:44:41 51° SSE visible
22 Nov 10.7 23:46:44 10° WSW 23:50:29 20° WSW 23:50:29 20° WSW visible
23 Nov 10.2 02:36:28 16° NE 02:36:28 16° NE 02:38:14 10° NE visible
23 Nov 9.5 04:42:16 19° NNW 04:45:36 21° N 04:52:15 10° NE visible
23 Nov 9.9 20:30:54 10° SSW 20:46:11 40° SE 20:48:25 39° SE visible
23 Nov 10.1 22:45:07 10° SW 22:54:13 39° SW 22:54:13 39° SW visible
24 Nov 9.7 03:46:07 24° N 03:46:07 24° N 03:52:46 10° NE visible
24 Nov 9.1 05:54:27 10° NW 06:02:33 23° N 06:08:00 10° ENE visible
24 Nov 10.2 19:32:13 10° SSW 19:44:34 28° SE 19:52:13 22° ESE visible
24 Nov 9.6 21:44:23 10° SW 21:58:01 60° SSW 21:58:01 60° SSW visible
25 Nov 10.9 00:02:04 10° WSW 00:03:49 14° WSW 00:03:49 14° WSW visible
25 Nov 10.1 02:49:58 19° NNE 02:49:58 19° NNE 02:53:09 10° NE visible
25 Nov 9.4 04:55:47 17° NNW 05:01:37 23° N 05:08:18 10° NE visible
25 Nov 10.4 18:34:53 10° S 18:43:13 17° SE 18:53:21 10° ESE visible
25 Nov 9.5 20:44:28 10° SW 21:00:31 55° SE 21:01:51 55° SE visible
25 Nov 10.3 22:59:56 10° WSW 23:07:39 33° WSW 23:07:39 33° WSW visible
26 Nov 9.6 03:59:37 25° N 04:00:08 25° N 04:08:28 10° NE visible
26 Nov 9.8 19:45:18 10° SSW 19:58:58 40° SE 20:05:44 32° ESE visible
26 Nov 9.6 21:58:46 10° SW 22:11:32 60° WSW 22:11:32 60° WSW visible
27 Nov 9.9 03:03:28 23° NNE 03:03:28 23° NNE 03:08:32 10° NE visible
27 Nov 9.2 05:09:17 15° NW 05:17:33 29° N 05:24:27 10° ENE visible
27 Nov 10.0 18:47:01 10° S 18:57:48 27° SE 19:09:38 14° E visible
27 Nov 9.3 20:58:28 10° SW 21:14:50 74° SE 21:15:27 73° SE visible
27 Nov 10.5 23:15:18 10° WSW 23:21:16 26° W 23:21:16 26° W visible
28 Nov 10.5 02:07:19 13° NE 02:07:19 13° NE 02:08:23 10° NE visible
28 Nov 9.5 04:13:08 26° NNW 04:16:15 28° N 04:24:33 10° ENE visible
28 Nov 9.4 19:58:55 10° SW 20:13:09 56° SE 20:19:24 44° E visible
28 Nov 9.8 22:13:39 10° WSW 22:25:13 52° W 22:25:13 52° W visible
29 Nov11.001:11:11NE01:11:11NE00:31:02Wvisible
29 Nov 9.8 03:17:00 27° NNE 03:17:00 27° NNE 03:24:23 10° NE visible
29 Nov 8.8 05:22:49 13° NW 05:33:15 40° NNE 05:40:21 10° E visible
29 Nov 9.7 19:00:08 10° SSW 19:12:02 40° SE 19:23:22 21° E visible
29 Nov 9.2 21:12:55 10° WSW 21:29:11 87° NW 21:29:11 87° NW visible
29 Nov 10.7 23:31:14 10° W 23:35:00 19° W 23:35:00 19° W visible
30 Nov 10.3 02:20:53 18° NE 02:20:53 18° NE 02:23:57 10° NE visible
30 Nov 9.3 04:26:41 27° NNW 04:32:12 35° NNE 04:40:37 10° ENE visible
30 Nov 9.9 18:02:13 10° S 18:11:24 25° SE 18:24:14 10° E visible
30 Nov 9.2 20:13:00 10° SW 20:27:24 75° SE 20:33:10 55° ENE visible
30 Nov 10.0 22:29:03 10° WSW 22:38:59 40° WNW 22:38:59 40° WNW visible
01 Dec 9.6 03:30:35 33° N 03:30:35 33° N 03:40:29 10° ENE visible
01 Dec 8.4 05:36:24 12° NW 05:48:38 58° NNE 05:55:50 10° ESE visible
01 Dec 9.3 19:13:48 10° SW 19:26:07 56° SE 19:37:10 28° ENE visible
01 Dec 9.4 21:27:51 10° WSW 21:43:00 68° NW 21:43:00 68° NW visible
